Simultaneous Nadir Overpasses (SNOs) Predictions

Prediction of SNOs between NOAA-21 and AQUA Satellite Orbit:

Table of predicted SNOs for the next 14.0 days since TLE Epoch: 12/7/2024
Index Date (NOAA-21) Time (NOAA-21) Lat,Lon (NOAA-21) SZA (NOAA-21 ) Date (AQUA) Time (AQUA) Lat,Lon (AQUA) SZA (AQUA ) Distance(km) Time Diff (sec)
1 12/07/2024 15:32:20 81.33,-124.14 109.35 12/07/2024 15:33:32 81.33,-124.01 109.30 2.22 72
2 12/07/2024 16:23:04 -81.33, 43.76 70.73 12/07/2024 16:22:52 -81.33, 43.68 70.71 1.31 12
3 12/10/2024 02:44:42 81.33, 68.19 109.57 12/10/2024 02:45:09 81.33, 68.21 109.55 0.46 27
4 12/10/2024 03:35:27 -81.33,-124.29 70.46 12/10/2024 03:34:29 -81.33,-124.10 70.45 3.16 58
5 12/12/2024 13:06:21 -81.33, 92.61 70.19 12/12/2024 13:07:25 -81.33, 92.69 70.23 1.34 64
6 12/12/20
